Flag for Germany Weather past 2 weeks in Oldenburg, Lower Saxony, Germany

Now
57 °F

Partly sunny.


Feels Like: 55 °F
Forecast: 46 / 58 °F
Wind: 10 mph from West

Location: Bremen Airport

Current Time: May 27, 2015 at 3:17:28 PM

Latest Report: May 27, 2015 at 2:20 PM


Visibility: N/A

Pressure: 30.18 "Hg

Humidity: 55%

Dew point: 41 °F

Location of OldenburgLocation

Historic Weather in Oldenburg — Graph

°F

Oldenburg temperature yesterday

Maximum temperature yesterday: 57 °F (at 2:50 PM)
Minimum temperature yesterday: 43 °F (at 5:50 AM)
Average temperature yesterday: 51 °F

Past Weeks' High & Low Weather Summary

 TemperatureHumidityPressure
High70 °F (May 12, 2:20 PM)100% (May 16, 1:50 AM)30.30 "Hg (May 16, 1:50 AM)
Low34 °F (May 16, 5:20 AM)36% (May 25, 4:50 PM)29.59 "Hg (May 18, 7:20 PM)
Average52 °F73%30.03 "Hg
* Reported May 12 2:20 PM — May 27 2:20 PM, Oldenburg, Weather by CustomWeather, © 2015

Note: Actual official high and low records may vary slightly from our data, if they occured in-between our weather recording intervals... More about our weather records

Advertising

Oldenburg weather history for previous 24 hours

 ConditionsComfort  
Time TempWeatherWind HumidityBarometerVisibility
2:20 PM
Wed, May 27
57 °FPartly sunny.10 mph55%30.18 "HgN/A
1:50 PM57 °FPartly sunny.8 mph55%30.18 "HgN/A
1:20 PM57 °FBroken clouds.8 mph55%30.18 "HgN/A
12:50 PM55 °FBroken clouds.12 mph55%30.18 "HgN/A
12:20 PM59 °FScattered clouds.12 mph48%30.18 "HgN/A
11:50 AM57 °FScattered clouds.10 mph55%30.18 "HgN/A
11:20 AM57 °FScattered clouds.13 mph51%30.18 "HgN/A
10:50 AM57 °FScattered clouds.12 mph51%30.18 "HgN/A
10:20 AM55 °FScattered clouds.14 mph55%30.21 "HgN/A
9:50 AM52 °FScattered clouds.13 mph67%30.21 "HgN/A
9:20 AM54 °FScattered clouds.14 mph63%30.18 "HgN/A
8:50 AM52 °FScattered clouds.15 mph72%30.18 "HgN/A
8:20 AM52 °FPartly sunny.14 mph77%30.18 "HgN/A
7:50 AM52 °FPartly sunny.13 mph77%30.18 "HgN/A
7:20 AM50 °FPassing clouds.12 mph82%30.18 "HgN/A
6:50 AM48 °FPassing clouds.8 mph87%30.18 "HgN/A
6:20 AM48 °FPartly sunny.9 mph87%30.18 "HgN/A
5:50 AM46 °FPassing clouds.10 mph87%30.18 "HgN/A
5:20 AM48 °FPassing clouds.10 mph87%30.18 "HgN/A
4:50 AM48 °FPassing clouds.10 mph82%30.18 "HgN/A
4:20 AM48 °FPartly cloudy.9 mph82%30.18 "HgN/A
3:50 AM48 °FClear.8 mph82%30.18 "Hg10 mi
3:20 AM46 °FClear.8 mph87%30.18 "Hg10 mi
2:50 AM46 °FClear.8 mph87%30.18 "Hg10 mi
2:20 AM48 °FClear.9 mph82%30.18 "Hg10 mi
1:50 AM48 °FPassing clouds.9 mph82%30.18 "HgN/A
1:20 AM48 °FClear.9 mph82%30.18 "Hg10 mi
12:50 AM45 °FPassing clouds.7 mph87%30.18 "HgN/A
12:20 AM46 °FClear.7 mph82%30.18 "Hg10 mi
11:20 PM
Tue, May 26
50 °FPassing clouds.9 mph76%30.18 "HgN/A
10:50 PM48 °FPassing clouds.8 mph82%30.18 "HgN/A
10:20 PM50 °FPartly sunny.9 mph76%30.18 "HgN/A
9:50 PM50 °FPartly sunny.10 mph76%30.18 "HgN/A
9:20 PM50 °FPartly sunny.14 mph76%30.15 "HgN/A
8:50 PM52 °FBroken clouds.14 mph67%30.15 "HgN/A
8:20 PM52 °FBroken clouds.12 mph67%30.15 "HgN/A
7:50 PM52 °FBroken clouds.13 mph67%30.15 "HgN/A
7:20 PM54 °FBroken clouds.13 mph63%30.12 "HgN/A
6:50 PM54 °FSprinkles. Broken clouds.12 mph67%30.12 "HgN/A
6:20 PM52 °FSprinkles. Broken clouds.13 mph77%30.12 "HgN/A
5:50 PM52 °FBroken clouds.8 mph82%30.12 "HgN/A
5:20 PM52 °FSprinkles. Broken clouds.14 mph77%30.12 "HgN/A
4:50 PM55 °FBroken clouds.13 mph63%30.09 "HgN/A
4:20 PM55 °FPartly sunny.17 mph59%30.09 "HgN/A
3:50 PM54 °FPartly sunny.15 mph67%30.09 "HgN/A
3:20 PM55 °FPartly sunny.16 mph63%30.09 "HgN/A
Weather by CustomWeather, © 2015

See weather overviewHow to use our weather pages